Hourly Data Report for October 03, 2013

All times are specified in Local Standard Time (LST). Add 1 hour to adjust for Daylight Saving Time where and when it is observed.

EMERSON AUTO
MANITOBA

49°00'00.000" N
97°14'15.000" W
242.00 m
5020881
71560
WEX

Download Data

Hourly Data (October 2013)
Hourly Data Report for October 3, 2013
Temp Definition
°C
Dew Point Temp Definition
°C
Rel Hum Definition
%
Wind Dir Definition
10's deg

Wind Spd Definition
km/h
Visibility Definition
km
Stn Press Definition
kPa
Hmdx Definition


Wind Chill Definition


Weather Definition


TIME
00:00 7.2 5.9 91 17 7   98.56     LegendNANA
01:00 3.3 2.5 94 17 4   98.56     LegendNANA
02:00 1.2 0.7 96 20 7   98.59     LegendNANA
03:00 3.0 2.6 97 24 4   98.62     LegendNANA
04:00 2.0 1.3 95 29 2   98.63     LegendNANA
05:00 -0.1 -0.9 94 27 7   98.72   -3 LegendNANA
06:00 2.0 1.5 96 31 6   98.73     LegendNANA
07:00 5.1 4.6 97 34 13   98.73     LegendNANA
08:00 6.3 5.4 94 33 17   98.82     LegendNANA
09:00 9.2 6.2 81 35 20   98.82     LegendNANA
10:00 11.2 6.8 74 35 13   98.92     LegendNANA
11:00 12.7 6.1 64 36 19   98.92     LegendNANA
12:00 13.2 4.8 57 36 19   98.92     LegendNANA
13:00 13.8 4.6 54 34 19   98.90     LegendNANA
14:00 14.3 4.5 52 35 17   98.90     LegendNANA
15:00 14.8 4.1 49 34 20   98.91     LegendNANA
16:00 14.2 3.4 48 34 20   98.94     LegendNANA
17:00 12.9 3.6 53 35 22   98.99     LegendNANA
18:00 11.1 4.9 66 36 15   99.08     LegendNANA
19:00 9.7 4.8 71 36 20   99.16     LegendNANA
20:00 9.0 4.6 74 36 19   99.23     LegendNANA
21:00 8.2 4.4 77 36 24   99.27     LegendNANA
22:00 6.9 3.3 78 36 20   99.34     LegendNANA
23:00 6.0 2.9 80 36 20   99.39     LegendNANA

Notes on Data Quality.

Legend

  • E = Estimated
  • M = Missing
  • NA = Not Available
  • ‡ = Partner data that is not subject to review by the National Climate Archives
Date modified: